Overview Statistics Trail Chart Weather Telemetry Raw packets
 

This is the latest recevied weather packets stored in our database for station/object N5ATR. If no packets are shown the sender has not sent any weather packets the latest 10 day(s).

<< 5 6 7 8 9 10 11 >>
Time Temp. Humidity Pressure Rain* Wind** Luminosity Snow
1788652072 28.33° C 31% 1021.2 hPa 0 mm - 124 W/m² -
1788651767 28.89° C 30% 1021 hPa 0 mm - 93 W/m² -
1788651462 29.44° C 30% 1020.9 hPa 0 mm - 180 W/m² -
1788651162 28.89° C 30% 1020.8 hPa 0 mm - 203 W/m² -
1788650862 28.89° C 31% 1021 hPa 0 mm - 208 W/m² -
1788650558 28.89° C 30% 1021.3 hPa 0 mm - 147 W/m² -
1788650253 29.44° C 30% 1021 hPa 0 mm - 225 W/m² -
1788649948 29.44° C 30% 1020.9 hPa 0 mm - 274 W/m² -
1788649645 29.44° C 30% 1020.9 hPa 0 mm - 256 W/m² -
1788649342 29.44° C 30% 1021.2 hPa 0 mm - 328 W/m² -
1788649076 30° C 29% 1021.2 hPa 0 mm - 340 W/m² -
1788648737 29.44° C 30% 1020.9 hPa 0 mm - 281 W/m² -
1788648436 28.89° C 30% 1021 hPa 0 mm - 341 W/m² -
1788648132 28.89° C 30% 1020.8 hPa 0 mm - 199 W/m² -
1788647828 29.44° C 30% 1021.2 hPa 0 mm - 316 W/m² -
1788647524 29.44° C 29% 1021.2 hPa 0 mm - 407 W/m² -
1788647220 28.89° C 30% 1021.2 hPa 0 mm - 403 W/m² -
1788646945 30° C 29% 1021.2 hPa 0 mm - 312 W/m² -
1788646615 29.44° C 30% 1020.8 hPa 0 mm - 348 W/m² -
1788646312 30° C 30% 1021 hPa 0 mm - 441 W/m² -
1788646007 29.44° C 30% 1021.2 hPa 0 mm - 462 W/m² -
1788645703 30° C 30% 1021.3 hPa 0 mm - 400 W/m² -
1788645403 29.44° C 31% 1021.3 hPa 0 mm - 392 W/m² -
1788645098 30° C 30% 1021.3 hPa 0 mm - 414 W/m² -
1788644794 30° C 31% 1021.2 hPa 0 mm - 494 W/m² -

* Rain latest hour (hover to see other rain measurements)
** Current wind speed in m/s (hover to see current wind gust speed)